This is the latest recevied weather packets stored in our database for station/object YO8CLN-10. If no packets are shown the sender has not sent any weather packets the latest 1 day(s).
| Time | Temp. | Humidity | Pressure | Rain* | Wind** | Luminosity | Snow |
|---|---|---|---|---|---|---|---|
| 1777977003 | 25.56° C | 29% | 1111 hPa | 0 mm | 0.89 m/s, 315° | - | - |
| 1777976402 | 24.44° C | 30% | 1111 hPa | 0 mm | 1.34 m/s, 112° | - | - |
| 1777975924 | 24.44° C | 29% | 1111 hPa | 0 mm | 0 m/s | - | - |
| 1777975802 | 24.44° C | 29% | 1111 hPa | 0 mm | 0.89 m/s, 0° | - | - |
| 1777975201 | 24.44° C | 30% | 1111 hPa | 0 mm | 0 m/s | - | - |
| 1777974600 | 23.89° C | 30% | 1111 hPa | 0 mm | 1.34 m/s, 292° | - | - |
| 1777974000 | 23.89° C | 30% | 1111 hPa | 0 mm | 0.89 m/s, 292° | - | - |
| 1777973399 | 23.89° C | 34% | 1111 hPa | 0 mm | 0.45 m/s, 45° | - | - |
| 1777972799 | 22.78° C | 32% | 1111 hPa | 0 mm | 0.89 m/s, 22° | - | - |
| 1777972198 | 22.78° C | 31% | 1111 hPa | 0 mm | 1.79 m/s, 22° | - | - |
| 1777971598 | 22.78° C | 32% | 1111 hPa | 0 mm | 2.24 m/s, 0° | - | - |
| 1777970997 | 22.78° C | 33% | 1111 hPa | 0 mm | 0.89 m/s, 45° | - | - |
| 1777970396 | 22.22° C | 35% | 1111 hPa | 0 mm | 0 m/s | - | - |
| 1777969796 | 22.22° C | 37% | 1111 hPa | 0 mm | 1.79 m/s, 22° | - | - |
| 1777969195 | 21.67° C | 41% | 1111 hPa | 0 mm | 0.45 m/s, 67° | - | - |
| 1777968595 | 20.56° C | 44% | 1111 hPa | 0 mm | 0.89 m/s, 67° | - | - |
| 1777967994 | 20.56° C | 43% | 1111 hPa | 0 mm | 0 m/s | - | - |
| 1777967394 | 19.44° C | 48% | 1111 hPa | 0 mm | 0 m/s | - | - |
| 1777966793 | 18.89° C | 48% | 1111 hPa | 0 mm | 0.89 m/s, 67° | - | - |
| 1777966192 | 17.78° C | 49% | 1111 hPa | 0 mm | 0 m/s | - | - |
| 1777965592 | 17.22° C | 51% | 1111 hPa | 0 mm | 0.89 m/s, 45° | - | - |
| 1777964991 | 16.67° C | 53% | 1111 hPa | 0 mm | 0 m/s | - | - |
| 1777964391 | 16.67° C | 55% | 1111 hPa | 0 mm | 0 m/s | - | - |
| 1777963790 | 15.56° C | 58% | 1111 hPa | 0 mm | 0.45 m/s, 45° | - | - |
| 1777963190 | 14.44° C | 60% | 1111 hPa | 0 mm | 0 m/s | - | - |
* Rain latest hour (hover to see other rain measurements)
** Current wind speed in m/s (hover to see current wind gust speed)